Theta_e
333 333 333 333 333 334 334 333 334 335 334 334 334 333 333 333 333 333 333 333 333 333 334 334 334 333 332 333 333 333 332 332 332 332 332 332 333 334 334 335 334 333
332 332 332 332 333 333 333 332 333 334 334 334 334 334 333 333 333 333 333 333 333 333 334 334 333 333 333 333 332 332 332 332 332 331 331 332 333 334 334 334 335 334
331 331 331 332 332 332 332 331 331 332 333 334 334 334 333 333 333 333 333 333 333 333 333 334 334 334 334 332 332 333 331 331 332 331 331 333 334 334 334 334 334 334
330 331 331 331 331 331 331 331 332 332 333 333 333 333 333 333 333 333 333 333 333 333 334 335 335 335 334 333 333 333 331 329 330 331 331 332 333 333 334 333 332 332
330 330 330 330 331 331 331 332 332 332 332 332 332 332 332 332 333 333 333 334 333 333 333 334 334 334 334 333 333 332 331 330 330 331 332 332 332 333 333 332 331 331
329 329 330 329 330 331 331 331 331 330 330 331 331 332 332 332 332 332 333 334 334 333 333 333 334 334 333 333 333 331 331 331 331 332 332 331 331 331 332 332 332 331
329 329 330 330 330 331 332 330 330 330 330 330 331 331 331 331 331 332 332 333 333 333 333 332 332 332 332 332 333 333 332 332 332 333 331 330 330 331 332 332 331 331
328 329 329 330 330 330 331 330 330 330 330 330 331 331 331 331 331 332 332 333 333 333 333 332 331 332 332 332 333 333 333 333 333 333 331 331 331 331 332 332 331 331
328 328 329 329 329 329 330 330 330 330 330 330 331 331 331 331 331 332 332 332 333 333 333 332 332 332 331 331 332 332 333 333 333 332 331 331 331 331 331 331 332 331
327 328 328 328 329 328 329 329 329 329 329 330 331 331 331 332 332 332 332 333 333 333 333 332 332 332 331 331 331 332 332 333 332 331 330 330 331 331 331 331 332 331
326 327 327 328 328 328 328 329 329 329 329 329 330 331 332 332 332 332 332 333 332 332 332 332 332 332 331 331 332 331 332 333 332 331 329 330 331 331 331 331 331 331
325 326 326 327 328 328 328 328 328 329 329 329 330 331 331 332 332 332 333 333 333 332 332 331 332 331 331 331 331 331 331 332 331 329 328 330 331 331 331 331 331 331
325 325 326 327 327 328 328 328 328 328 329 329 329 330 331 331 331 332 332 333 332 332 331 331 332 331 330 330 330 330 330 330 330 330 330 331 332 332 331 331 331 331
324 324 325 326 327 327 328 328 328 328 329 329 329 330 330 330 331 331 332 332 331 331 331 332 332 331 330 330 329 329 329 329 331 331 331 332 332 331 331 331 331 331
323 324 325 326 326 326 327 328 328 328 328 329 329 329 329 330 330 330 331 331 330 331 331 331 331 330 330 329 328 327 328 331 332 332 332 333 333 332 332 331 330 331
322 323 324 325 326 326 326 327 327 327 327 328 328 329 329 329 329 329 329 329 329 330 330 329 329 329 330 329 328 328 329 331 332 332 332 333 332 332 332 332 331 331
322 323 323 324 325 325 325 325 325 325 325 326 327 327 327 327 327 327 326 326 328 328 328 328 328 327 327 328 328 328 328 330 331 332 332 332 332 332 332 331 330 329
321 322 323 323 324 325 325 324 324 325 325 325 325 325 325 325 326 325 325 326 326 326 327 328 328 326 326 327 327 326 327 328 328 329 330 330 331 331 331 330 328 327
320 321 322 322 323 323 323 323 323 323 323 324 324 324 324 325 325 324 324 325 325 324 325 326 327 326 326 327 326 324 325 326 326 326 327 328 328 328 329 329 328 327
319 320 320 321 321 320 321 321 321 320 321 322 322 322 322 323 324 323 323 323 323 322 322 323 325 326 326 325 325 325 324 324 325 326 326 326 327 328 329 328 327 327
317 319 320 319 319 318 317 318 318 318 318 319 320 319 318 319 320 320 320 319 319 319 320 321 323 325 325 325 325 325 324 324 326 327 327 327 327 328 328 327 326 325
316 317 319 318 318 317 316 315 315 315 316 316 317 317 316 316 315 315 316 316 316 317 318 320 322 323 324 323 323 323 323 326 328 328 327 327 326 326 326 326 326 324
314 316 317 317 317 316 315 314 314 314 313 314 315 315 315 314 314 314 314 315 316 316 317 318 318 319 321 320 320 321 323 326 327 327 327 326 325 324 324 324 325 325
313 314 315 315 315 314 314 313 313 313 312 313 314 315 314 313 313 314 314 315 315 315 316 317 317 318 320 319 319 322 325 327 326 326 325 323 322 320 320 321 322 323
311 313 314 314 314 313 313 312 312 312 312 312 313 314 314 314 313 314 314 314 314 314 315 316 317 317 318 319 320 322 324 325 324 323 322 321 320 318 317 318 319 320
310 311 311 312 312 312 312 312 311 311 311 311 312 312 313 314 314 313 313 313 313 314 314 315 315 316 317 318 319 321 322 322 322 321 320 319 318 317 316 316 317 318
Wind_Speed
10 11 13 14 14 12 10 12 14 13 14 15 13 12 13 15 17 19 19 20 21 19 17 17 19 20 20 21 21 19 18 17 17 17 17 18 16 14 13 12 11 11
10 11 12 13 14 12 12 15 18 16 15 17 15 12 12 14 17 18 18 19 20 18 18 18 20 20 19 21 21 19 18 18 19 19 18 17 15 13 12 12 12 11
11 11 11 12 13 12 14 18 19 18 17 17 16 14 13 14 15 16 17 19 19 17 16 15 15 15 16 18 18 18 17 17 19 19 19 17 14 12 12 12 13 13
12 13 13 12 12 12 15 17 18 18 16 16 17 16 14 13 14 15 17 18 18 16 14 12 11 11 12 12 13 15 15 14 16 16 16 16 14 13 12 13 13 13
13 14 14 13 12 14 16 17 17 17 16 16 18 17 15 14 14 16 17 17 16 14 11 11 10 9 10 10 11 13 12 12 13 13 13 14 14 13 12 13 13 12
14 13 14 14 13 15 16 16 16 16 17 18 17 15 16 17 15 15 17 17 16 15 13 12 11 10 10 10 11 11 12 11 11 12 13 14 13 12 12 12 13 12
13 11 11 12 13 14 15 15 15 15 17 17 15 14 16 18 16 15 17 18 17 17 16 15 14 14 13 12 11 11 11 12 12 12 13 14 14 12 11 11 12 12
12 9 9 11 12 14 15 15 14 15 16 15 14 15 16 16 16 16 17 19 18 17 17 17 16 16 15 13 11 12 12 12 12 13 13 12 13 13 12 11 11 12
11 9 9 10 12 13 13 12 13 13 15 15 14 16 16 16 16 16 17 19 19 17 17 18 18 16 15 14 13 13 14 13 14 15 14 12 12 13 13 13 13 13
9 9 9 10 11 12 11 11 12 12 14 15 15 16 15 15 16 17 18 19 19 18 18 19 19 16 14 15 15 14 14 14 14 15 16 15 14 14 14 13 14 14
10 10 10 10 10 11 11 12 12 11 12 14 14 15 15 16 18 18 18 19 20 19 18 19 19 17 15 15 14 14 15 15 16 16 16 15 15 14 14 14 14 14
11 10 10 10 10 10 11 11 10 10 11 11 13 15 16 17 18 19 19 19 19 19 18 19 19 18 17 16 14 14 16 17 16 15 15 14 13 13 13 14 14 14
12 11 10 9 9 10 9 9 9 9 10 10 12 16 18 18 18 18 18 17 17 16 16 17 16 16 18 18 16 17 17 17 16 15 14 13 12 13 13 13 14 14
12 11 10 8 8 8 8 7 7 8 9 10 13 15 18 18 18 18 15 14 16 17 16 15 14 15 18 18 18 18 17 16 16 15 14 13 12 13 13 13 13 13
11 11 9 8 7 7 6 6 6 7 8 10 12 14 16 16 16 15 12 12 15 16 16 16 15 16 17 17 18 19 18 16 16 15 14 14 14 13 13 13 13 12
12 12 9 7 6 6 6 5 5 6 7 9 11 13 13 11 10 12 12 11 11 11 12 15 17 18 18 17 17 17 16 15 15 15 15 15 14 14 14 13 12 12
13 13 10 8 8 7 6 5 4 4 3 5 7 9 9 8 9 12 11 10 12 10 9 12 17 20 19 17 16 15 15 14 14 15 15 15 15 15 14 13 12 12
13 13 11 11 10 9 8 5 4 4 2 3 4 4 6 7 9 11 11 13 16 15 10 9 13 18 18 16 17 17 16 14 13 14 14 15 15 14 14 14 13 12
14 13 12 12 12 11 9 7 5 4 2 1 1 3 7 8 10 11 12 15 16 16 12 10 12 16 17 16 17 18 16 14 12 12 12 13 14 14 13 13 14 14
15 15 14 13 12 10 9 7 6 5 4 3 2 4 7 10 11 12 13 15 13 13 14 14 14 16 17 18 17 16 15 12 10 10 10 11 13 13 12 13 14 14
16 15 14 13 11 10 9 8 7 7 7 6 6 7 8 10 10 10 11 12 12 13 15 15 16 16 17 17 16 15 13 11 9 10 10 11 12 12 12 13 14 15
17 16 15 14 12 11 10 9 8 8 9 9 9 10 10 11 12 12 11 9 9 10 11 11 14 17 17 15 14 14 13 11 10 11 11 12 12 12 12 12 12 14
17 16 15 14 13 12 11 10 10 9 8 9 11 12 13 14 15 15 14 12 11 8 7 8 10 14 16 14 12 13 12 10 11 12 12 13 13 12 13 14 14 14
16 16 16 15 14 12 11 10 10 9 9 9 12 14 14 14 15 16 15 14 13 10 9 9 9 11 13 13 13 13 10 9 12 13 13 14 15 13 14 17 18 16
14 15 16 16 14 13 12 11 10 10 9 10 13 17 18 16 16 17 17 16 14 12 11 12 11 11 12 14 14 14 10 8 10 13 12 12 14 16 16 16 17 17
13 14 15 16 15 14 13 12 11 11 11 11 12 15 19 20 19 20 21 20 17 15 14 13 12 10 9 11 12 12 12 9 9 12 13 10 11 15 17 16 17 17
Wind_Direction
254 255 255 253 251 246 233 224 223 224 230 234 230 217 214 214 218 228 228 225 228 225 215 211 205 198 197 203 208 202 200 199 198 206 209 206 204 197 195 197 196 201
261 260 258 256 255 252 242 230 225 224 228 232 231 220 212 210 212 221 223 221 227 229 221 211 200 192 192 199 205 203 201 198 197 204 206 202 198 191 192 197 196 201
260 254 249 250 252 250 243 235 229 226 226 228 228 221 215 212 210 215 217 214 218 223 221 211 196 191 195 198 201 202 203 199 195 198 199 193 189 188 192 197 198 201
267 258 251 249 246 243 239 235 232 229 226 227 226 222 219 213 207 210 214 213 214 214 210 204 197 196 202 203 202 202 203 201 195 195 195 189 185 186 189 197 202 201
277 268 259 252 242 237 234 232 235 234 229 227 226 224 221 213 202 204 209 210 211 210 203 201 199 197 203 208 210 205 200 204 201 192 192 190 184 185 188 196 202 200
288 279 268 257 245 237 233 234 238 235 230 227 222 218 218 214 205 202 206 204 201 199 198 200 199 201 205 207 214 208 196 201 202 193 198 195 184 183 187 193 198 196
299 291 274 263 252 240 233 236 240 235 230 227 219 213 216 215 207 202 205 204 196 190 195 202 200 203 207 205 207 205 193 197 198 196 203 194 180 182 186 190 197 195
309 302 281 267 259 249 239 238 242 239 234 229 218 214 216 214 205 201 205 206 197 187 191 198 199 202 207 204 201 200 196 196 193 194 202 191 177 182 186 186 194 196
313 306 285 270 264 258 247 240 243 241 235 229 220 216 217 212 202 200 205 206 199 189 186 191 195 198 203 203 203 202 199 199 194 191 197 192 181 184 186 184 189 195
317 306 289 276 269 264 255 245 244 240 234 231 224 219 217 211 202 200 204 203 199 193 189 193 195 193 195 197 198 199 197 199 196 192 196 196 186 183 185 183 186 193
328 315 300 288 278 271 262 251 244 240 237 233 229 226 221 212 204 202 203 204 202 196 191 195 195 191 190 189 189 195 197 197 195 194 199 196 185 181 184 183 186 191
338 326 311 299 289 282 272 260 250 245 242 239 235 232 225 214 205 203 203 204 203 200 197 199 196 191 192 191 189 192 194 193 193 198 201 192 182 181 181 182 185 188
340 332 320 306 295 291 285 274 264 255 251 245 237 234 229 218 207 206 204 201 201 204 204 199 187 179 182 189 193 191 188 188 192 197 198 188 181 182 180 182 185 185
340 334 327 316 306 302 296 286 275 267 261 251 242 238 232 222 211 206 200 194 198 204 202 190 175 168 172 181 188 187 186 189 190 191 190 183 181 181 179 180 181 181
344 340 333 324 319 318 312 299 284 274 262 249 242 239 235 230 218 201 183 180 191 199 199 189 175 166 166 175 184 185 186 186 182 182 183 179 177 175 173 174 174 175
353 353 350 343 340 337 335 325 298 279 262 248 247 242 235 230 208 183 174 176 183 190 197 191 181 171 166 173 184 184 179 174 171 175 176 173 171 167 165 165 164 168
3 6 8 8 8 5 4 358 331 311 283 259 258 244 230 220 197 187 185 179 175 181 192 188 182 176 170 175 185 182 173 169 167 168 169 168 167 163 159 155 152 164
11 14 17 18 20 23 25 23 14 10 342 272 261 220 206 205 199 195 189 182 179 182 189 189 182 177 172 178 189 184 174 168 166 166 167 168 167 162 159 156 151 153
16 20 23 22 23 24 25 28 34 44 46 322 302 180 180 180 183 185 186 188 186 184 193 202 189 180 176 180 186 185 179 174 169 167 169 170 168 164 160 157 154 150
18 24 28 27 27 27 28 31 43 68 86 75 93 143 159 166 176 181 180 182 183 188 200 201 188 180 178 176 180 185 184 178 170 167 168 167 164 160 157 156 154 152
17 23 29 32 33 34 37 39 48 73 89 93 107 123 130 143 154 157 161 169 175 186 196 192 181 176 174 173 179 186 182 172 165 163 159 155 154 154 155 155 153 152
17 22 28 34 37 39 42 44 47 62 84 96 106 113 114 115 115 114 119 132 150 169 182 180 170 165 165 170 178 183 179 166 157 152 142 136 140 144 144 140 143 152
18 22 27 33 38 41 45 49 49 52 68 89 102 107 105 102 101 101 100 101 108 125 146 156 154 150 152 161 170 174 175 163 151 145 135 128 126 128 134 134 136 142
21 23 27 32 37 42 45 48 52 51 50 69 95 104 101 98 99 99 97 94 90 92 106 121 125 127 134 145 155 157 158 152 145 138 129 128 128 129 139 143 143 143
26 27 29 33 37 41 44 46 50 54 53 63 83 93 95 95 94 94 92 88 83 82 90 102 107 113 128 143 154 156 148 139 142 141 135 133 134 136 140 144 146 149
31 33 35 38 40 40 43 46 48 53 58 65 74 83 90 92 90 88 87 84 84 86 87 91 94 99 118 140 154 157 146 127 121 131 134 126 118 124 130 134 137 140